Location: Davayat
(45.9471°N, 3.1105°E)
Time: 21:56:56
(UTC+00:00)

Meteor 2-12 Rocket - Pass Details

Date: 20 April 2021
Orbit: 935 x 958 km, 82.5° (Epoch: 16 May)

Event Time Altitude Azimuth Distance (km) Brightness Sun altitude
Rises 23:47:08 0° 352° (N) 3,633 8.6 -32.2°
Reaches altitude 10° 23:49:40 10° 356° (N) 2,680 7.7 -32.2°
Enters shadow 23:55:07 62° 42° (NE) 1,054 4.7 -32.2°
